This demonstration page uses our WeatherBlox Daily Observations layout. Learn more.

Left ArrowRight Arrow

41.12389, -100.76542

Hourly Observations for December 29, 2017

Temp ( °F °C ) Dew Point ( °F °C ) Humidity (%) Winds ( mph kmh ) Pressure ( in mb ) Visibility ( mi km ) Precip ( " mm )
12:53 am 00:53 Clear 15 -9.4 13 -10.6 91 91 SSE 5 7 30.29 1026 7 11 0.00 0.00
1:53 am 01:53 Clear 17 -8.3 13 -10.6 84 84 SSE 8 13 30.24 1024 10 16 0.00 0.00
2:53 am 02:53 Clear 14 -10 11 -11.7 88 88 SE 8 13 30.24 1024 10 16 0.00 0.00
3:53 am 03:53 Clear 13 -10.6 10 -12.2 88 88 ESE 8 13 30.19 1023 10 16 0.00 0.00
4:53 am 04:53 Clear 11 -11.7 7 -13.9 84 84 ESE 9 15 30.14 1021 10 16 0.00 0.00
5:53 am 05:53 Clear 9 -12.8 7 -13.9 92 92 ESE 8 13 30.10 1019 9 14 0.00 0.00
6:53 am 06:53 Clear 8 -13.3 6 -14.4 92 92 ESE 8 13 30.08 1019 9 14 0.00 0.00
7:53 am 07:53 Clear 8 -13.3 6 -14.4 92 92 ESE 5 7 30.09 1019 8 13 0.00 0.00
8:53 am 08:53 Sunny with Mist and Fog 8 -13.3 5 -15 87 87 Calm 30.09 1019 6 10 0.00 0.00
9:53 am 09:53 Sunny 13 -10.6 10 -12.2 88 88 Calm 30.09 1019 7 11 0.00 0.00
10:53 am 10:53 Sunny 16 -8.9 11 -11.7 80 80 W 6 9 30.12 1020 9 14 0.00 0.00
11:53 am 11:53 Sunny 20 -6.7 13 -10.6 74 74 NW 8 13 30.17 1022 10 16 0.00 0.00
12:53 pm 12:53 Sunny 26 -3.3 18 -7.8 71 71 NNW 15 24 30.16 1021 10 16 0.00 0.00
1:22 pm 13:22 Mostly Cloudy 23 -5 17 -8.3 78 78 N 24 39 30.27 1025 9 14 0.00 0.00
1:53 pm 13:53 Cloudy with Haze 21 -6.1 15 -9.4 78 78 N 16 26 30.22 1024 6 10 0.00 0.00
2:25 pm 14:25 Windy with Snow Likely 20 -6.7 14 -10 78 78 N 21 33 30.30 1026 2 3 0.00 0.03
2:34 pm 14:34 Cloudy with Haze 20 -6.7 14 -10 78 78 N 20 31 30.33 1027 6 10 0.00 0.03
2:53 pm 14:53 Cloudy 20 -6.7 14 -10 78 78 N 16 26 30.26 1025 7 11 0.00 0.03
3:15 pm 15:15 Cloudy with Light Snow 19 -7.2 13 -10.6 77 77 N 16 26 30.36 1028 2 3 0.00 0.03
3:25 pm 15:25 Windy with Snow Likely 19 -7.2 12 -11.1 74 74 N 20 31 30.36 1028 6 10 0.00 0.03
3:37 pm 15:37 Cloudy with Light Snow 18 -7.8 12 -11.1 77 77 N 17 28 30.36 1028 2 3 0.00 0.03
3:45 pm 15:45 Cloudy with Light Snow 17 -8.3 11 -11.7 77 77 N 14 22 30.36 1028 1 2 0.00 0.03
3:53 pm 15:53 Cloudy with Light Snow 16 -8.9 10 -12.2 77 77 N 17 28 30.33 1027 2 3 0.00 0.03
4:00 pm 16:00 Cloudy with Light Snow 16 -8.9 10 -12.2 77 77 N 17 28 30.42 1030 3 5 0.00 0.03
4:53 pm 16:53 Mostly Cloudy 12 -11.1 5 -15 73 73 N 15 24 30.39 1029 10 16 0.00 0.03
5:15 pm 17:15 Mostly Cloudy with Haze 11 -11.7 5 -15 77 77 N 15 24 30.50 1033 5 8 0.00 0.03
5:34 pm 17:34 Partly Cloudy 10 -12.2 3 -16.1 73 73 N 14 22 30.56 1035 10 16 0.00 0.03
5:53 pm 17:53 Mostly Clear 9 -12.8 2 -16.7 73 73 N 13 20 30.47 1032 10 16 0.00 0.03
6:53 pm 18:53 Clear 7 -13.9 0 -17.8 73 73 N 12 19 30.49 1033 10 16 0.00 0.00
7:53 pm 19:53 Clear 6 -14.4 -1 -18.3 73 73 N 6 9 30.53 1034 10 16 0.00 0.00
8:53 pm 20:53 Partly Cloudy 5 -15 -1 -18.3 76 76 N 6 9 30.54 1034 10 16 0.00 0.00
9:53 pm 21:53 Clear 2 -16.7 -3 -19.4 80 80 N 6 9 30.54 1034 10 16 0.00 0.00
10:53 pm 22:53 Clear 2 -16.7 -3 -19.4 80 80 NNW 6 9 30.54 1034 10 16 0.00 0.00
11:53 pm 23:53 Clear 0 -17.8 -4 -20 83 83 WNW 7 11 30.56 1035 10 16 0.00 0.00

Powered by AerisWeather